TimeCST,TemperatureF,Dew PointF,Humidity,Sea Level PressureIn,VisibilityMPH,Wind Direction,Wind SpeedMPH,Gust SpeedMPH,PrecipitationIn,Events,Conditions,WindDirDegrees,DateUTC
12:15 AM,42.8,32.0,66,30.13,10.0,North,35.7,42.6,N/A,,Scattered Clouds,10,2013-03-05 06:15:00
12:35 AM,42.8,32.0,66,30.14,5.0,North,27.6,40.3,N/A,,Haze,10,2013-03-05 06:35:00
12:55 AM,42.8,30.2,61,30.15,10.0,North,26.5,39.1,N/A,,Clear,10,2013-03-05 06:55:00
1:15 AM,42.8,30.2,61,30.16,10.0,North,25.3,33.4,N/A,,Clear,10,2013-03-05 07:15:00
1:55 AM,42.8,30.2,61,30.19,10.0,North,21.9,29.9,N/A,,Scattered Clouds,360,2013-03-05 07:55:00
2:15 AM,44.6,28.4,53,30.20,10.0,North,18.4,32.2,N/A,,Mostly Cloudy,10,2013-03-05 08:15:00
2:35 AM,44.6,28.4,53,30.21,10.0,North,23.0,28.8,N/A,,Overcast,10,2013-03-05 08:35:00
2:55 AM,42.8,26.6,53,30.22,10.0,North,19.6,-,N/A,,Scattered Clouds,360,2013-03-05 08:55:00
4:15 AM,41.0,24.8,53,30.25,10.0,North,23.0,33.4,N/A,,Clear,360,2013-03-05 10:15:00
4:35 AM,41.0,19.4,42,30.27,10.0,North,21.9,26.5,N/A,,Clear,360,2013-03-05 10:35:00
4:55 AM,41.0,17.6,39,30.29,10.0,North,21.9,27.6,N/A,,Clear,360,2013-03-05 10:55:00
5:15 AM,37.4,19.4,48,30.30,10.0,North,15.0,21.9,N/A,,Clear,360,2013-03-05 11:15:00
5:35 AM,37.4,19.4,48,30.30,10.0,North,21.9,28.8,N/A,,Clear,360,2013-03-05 11:35:00
6:35 AM,35.6,19.4,52,30.35,10.0,NNW,15.0,-,N/A,,Clear,340,2013-03-05 12:35:00
7:15 AM,33.8,17.6,52,30.36,10.0,North,18.4,-,N/A,,Clear,350,2013-03-05 13:15:00
7:35 AM,33.8,19.4,56,30.36,10.0,NNW,13.8,-,N/A,,Clear,340,2013-03-05 13:35:00
7:55 AM,35.6,19.4,52,30.38,10.0,NNW,15.0,-,N/A,,Clear,340,2013-03-05 13:55:00
8:15 AM,35.6,19.4,52,30.40,10.0,NNW,13.8,-,N/A,,Clear,330,2013-03-05 14:15:00
8:35 AM,37.4,19.4,48,30.42,10.0,NNW,13.8,-,N/A,,Clear,340,2013-03-05 14:35:00
8:55 AM,37.4,17.6,45,30.42,10.0,North,25.3,-,N/A,,Clear,350,2013-03-05 14:55:00
9:15 AM,39.2,17.6,42,30.43,10.0,North,25.3,31.1,N/A,,Clear,350,2013-03-05 15:15:00
9:35 AM,41.0,15.8,36,30.43,10.0,North,26.5,32.2,N/A,,Clear,350,2013-03-05 15:35:00
9:55 AM,41.0,15.8,36,30.44,10.0,NNW,20.7,27.6,N/A,,Clear,340,2013-03-05 15:55:00
10:15 AM,41.0,17.6,39,30.45,10.0,NNW,20.7,26.5,N/A,,Clear,340,2013-03-05 16:15:00
10:35 AM,42.8,15.8,34,30.45,10.0,North,20.7,28.8,N/A,,Clear,350,2013-03-05 16:35:00
10:55 AM,42.8,17.6,36,30.45,10.0,NNW,18.4,26.5,N/A,,Clear,340,2013-03-05 16:55:00
11:15 AM,44.6,17.6,34,30.45,10.0,NNW,17.3,25.3,N/A,,Clear,330,2013-03-05 17:15:00
11:35 AM,44.6,17.6,34,30.45,10.0,North,18.4,23.0,N/A,,Clear,350,2013-03-05 17:35:00
11:55 AM,44.6,17.6,34,30.45,10.0,NNW,13.8,24.2,N/A,,Clear,340,2013-03-05 17:55:00
12:15 PM,46.4,19.4,34,30.44,10.0,NNW,18.4,21.9,N/A,,Clear,340,2013-03-05 18:15:00
12:35 PM,46.4,17.6,32,30.43,10.0,NNW,13.8,20.7,N/A,,Clear,340,2013-03-05 18:35:00
12:55 PM,48.2,17.6,30,30.43,10.0,North,19.6,25.3,N/A,,Clear,350,2013-03-05 18:55:00
1:15 PM,50.0,19.4,30,30.41,10.0,North,13.8,20.7,N/A,,Clear,350,2013-03-05 19:15:00
1:35 PM,50.0,19.4,30,30.40,10.0,NNW,13.8,20.7,N/A,,Clear,330,2013-03-05 19:35:00
1:55 PM,50.0,19.4,30,30.40,10.0,NNW,11.5,23.0,N/A,,Clear,330,2013-03-05 19:55:00
2:15 PM,50.0,17.6,28,30.39,10.0,NW,8.1,18.4,N/A,,Clear,320,2013-03-05 20:15:00
2:35 PM,51.8,15.8,24,30.38,10.0,NNW,9.2,12.7,N/A,,Clear,340,2013-03-05 20:35:00
2:55 PM,51.8,19.4,28,30.38,10.0,NNW,13.8,-,N/A,,Clear,330,2013-03-05 20:55:00
3:15 PM,51.8,17.6,26,30.38,10.0,NNW,16.1,21.9,N/A,,Clear,340,2013-03-05 21:15:00
3:35 PM,51.8,15.8,24,30.37,10.0,NNW,13.8,21.9,N/A,,Clear,340,2013-03-05 21:35:00
3:55 PM,51.8,14.0,22,30.37,10.0,North,9.2,-,N/A,,Clear,360,2013-03-05 21:55:00
4:15 PM,53.6,14.0,21,30.36,10.0,North,12.7,19.6,N/A,,Clear,360,2013-03-05 22:15:00
4:35 PM,53.6,14.0,21,30.36,10.0,North,13.8,-,N/A,,Clear,350,2013-03-05 22:35:00
4:55 PM,53.6,14.0,21,30.36,10.0,NNW,10.4,-,N/A,,Clear,340,2013-03-05 22:55:00
5:15 PM,51.8,14.0,22,30.36,10.0,North,12.7,-,N/A,,Clear,350,2013-03-05 23:15:00
5:35 PM,51.8,14.0,22,30.36,10.0,North,11.5,16.1,N/A,,Clear,350,2013-03-05 23:35:00
5:55 PM,51.8,15.8,24,30.36,10.0,North,8.1,-,N/A,,Clear,350,2013-03-05 23:55:00
6:15 PM,50.0,17.6,28,30.36,10.0,North,8.1,-,N/A,,Clear,360,2013-03-06 00:15:00
6:35 PM,46.4,17.6,32,30.36,10.0,North,5.8,-,N/A,,Clear,10,2013-03-06 00:35:00
6:55 PM,46.4,17.6,32,30.37,10.0,North,3.5,-,N/A,,Clear,10,2013-03-06 00:55:00
7:15 PM,42.8,17.6,36,30.37,10.0,NNE,6.9,-,N/A,,Clear,20,2013-03-06 01:15:00
7:35 PM,42.8,19.4,39,30.38,10.0,NNE,5.8,-,N/A,,Clear,20,2013-03-06 01:35:00
7:55 PM,41.0,17.6,39,30.38,10.0,NE,4.6,-,N/A,,Clear,40,2013-03-06 01:55:00
8:15 PM,42.8,14.0,31,30.38,10.0,NE,5.8,-,N/A,,Clear,50,2013-03-06 02:15:00
8:35 PM,41.0,15.8,36,30.38,10.0,NE,4.6,-,N/A,,Clear,40,2013-03-06 02:35:00
8:55 PM,41.0,17.6,39,30.38,10.0,NE,5.8,-,N/A,,Clear,50,2013-03-06 02:55:00
9:15 PM,41.0,15.8,36,30.39,10.0,ENE,3.5,-,N/A,,Clear,60,2013-03-06 03:15:00
9:35 PM,37.4,21.2,52,30.39,10.0,Calm,Calm,-,N/A,,Clear,0,2013-03-06 03:35:00
9:55 PM,35.6,21.2,56,30.39,10.0,East,3.5,-,N/A,,Clear,90,2013-03-06 03:55:00
10:15 PM,35.6,23.0,60,30.40,10.0,Calm,Calm,-,N/A,,Clear,0,2013-03-06 04:15:00
10:35 PM,35.6,21.2,56,30.40,10.0,Calm,Calm,-,N/A,,Clear,0,2013-03-06 04:35:00
10:55 PM,32.0,23.0,69,30.40,10.0,Calm,Calm,-,N/A,,Clear,0,2013-03-06 04:55:00
11:15 PM,32.0,23.0,69,30.41,10.0,NW,3.5,-,N/A,,Clear,320,2013-03-06 05:15:00
11:35 PM,32.0,23.0,69,30.40,10.0,North,4.6,-,N/A,,Clear,360,2013-03-06 05:35:00
11:55 PM,32.0,21.2,64,30.40,10.0,North,5.8,-,N/A,,Clear,10,2013-03-06 05:55:00